Regional Weather Roundup
Issued by NWS

Home | Current Version | Previous Version | Text Only | Print | Product List | Glossary Off
Versions: 1 2 3 4 5 6 7 8 9 10 11 12 13 14 15 16 17 18 19 20 21 22 23 24 25 26 27 28 29 30 31 32 33 34 35 36 37 38 39 40 41 42 43 44 45 46 47 48 49 50

000
ASUS43 KMPX 152310
RWRMN
WEATHER ROUNDUP FOR MINNESOTA
NATIONAL WEATHER SERVICE TWIN CITIES/CHANHASSEN MN
600 PM CDT TUE AUG 15 2017


NOTE: "FAIR" INDICATES FEW OR NO CLOUDS BELOW 12,000 FEET WITH NO
SIGNIFICANT WEATHER AND/OR OBSTRUCTIONS TO VISIBILITY. N/A MEANS
CURRENT SKY AND/OR WEATHER CONDITIONS ARE NOT AVAILABLE.

MNZ060>063-068>070-160000-
   Twin Cities Metro

CITY           SKY/WX    TMP DP  RH WIND       PRES   REMARKS
TWIN CITIES    CLOUDY    75  58  55 SE10      29.95S
ST PAUL        CLOUDY    74  61  63 SE12      29.96R
CRYSTAL        CLOUDY    76  54  46 E7        29.93S
BLAINE         CLOUDY    77  55  47 SE8       29.95S
LAKEVILLE      CLOUDY    70  59  68 SE7       29.96R
EDEN PRAIRIE   CLOUDY    75  55  49 E13       29.94S
SOUTH ST PAUL  CLOUDY    74  56  52 SE6       29.95S
LAKE ELMO      FAIR      73  59  60 SE5       29.97S
$$
MNZ001>005-007-008-013>017-022>024-027-028-160000-
   Northwest Minnesota

CITY           SKY/WX    TMP DP  RH WIND       PRES   REMARKS
BEMIDJI        CLOUDY    74  56  53 S7        29.95S
HALLOCK        CLOUDY    75  61  60 SW6       29.90S
ROSEAU         MOSUNNY   79  63  57 S3        29.91S
WARROAD        MOSUNNY   75  66  73 NE6       29.93R
THIEF RVR FALL CLOUDY    73  58  59 S7        29.93S
CROOKSTON      CLOUDY    73  57  56 S12       29.91F
FOSSTON        CLOUDY    72  57  60 S5        29.95R
DETROIT LAKES  MOSUNNY   72  59  64 SE8       29.94F
MOORHEAD       CLOUDY    72  59  64 SE8       29.90F
PARK RAPIDS    CLOUDY    74  59  59 SE8       29.95S
MAHNOMEN       CLOUDY    72  57  60 SE9       29.92F
$$
MNZ006-009>011-018-025>026-160000-
   North Central Minnesota

CITY           SKY/WX    TMP DP  RH WIND       PRES   REMARKS
BAUDETTE       CLOUDY    78  56  46 S3        29.92S
FLAG ISLAND    CLOUDY    75  61  60 CALM      29.91S
INTL FALLS     MOSUNNY   78  54  43 E8        29.94R
WASKISH        CLOUDY    75  61  60 SW7       29.94R
BIG FORK       SUNNY     79  55  44 S6        29.95S
LONGVILLE      CLOUDY    73  59  60 S6        29.97R
GRAND RAPIDS   MOSUNNY   74  61  63 S6        29.98R
CRANE LAKE     PTSUNNY   79  52  38 CALM      29.96S
ORR            MOSUNNY   79  54  41 SE3       29.93S
COOK             N/A     75  57  53 CALM      29.96R
WALKER         FAIR      72  59  63 S5        29.96R
$$
MNZ012-019>021-037-160000-
   Northeast Minnesota

CITY           SKY/WX    TMP DP  RH WIND       PRES   REMARKS
DULUTH         MOSUNNY   68  59  73 E8        30.00R
ELY            SUNNY     73  52  46 SE10      29.98S
HIBBING        SUNNY     73  58  59 SE14      29.97R
EVELETH        CLOUDY    74  46  36 S9        29.99R
DULUTH HARBOR  SUNNY     66  63  88 NE12      29.99S
TWO HARBORS    MOSUNNY   72  57  60 E12       29.99R
SILVER BAY     CLOUDY    66  55  68 NE5       30.01R
GRAND MARAIS     N/A     65  59  81 CALM      30.02S
G MARAIS ARPRT SUNNY     63  43  48 SE6       30.06R
$$
MNZ029>031-032-039>041-046>048-054>057-064-160000-
   West Central Minnesota

CITY           SKY/WX    TMP DP  RH WIND       PRES   REMARKS
FERGUS FALLS   CLOUDY    73  59  60 SE10G16   29.91S
WHEATON        PTSUNNY   72  59  64 SE9       29.92S
MORRIS         CLOUDY    72  63  73 SE10      29.91S
ALEXANDRIA     CLOUDY    70  58  65 E8        29.95S
ELBOW LAKE     FAIR      71  60  68 SE7       29.92S
WADENA         LGT RAIN  70  61  73 SE7       29.94F
GLENWOOD       CLOUDY    70  61  73 E5        29.95R
APPLETON       CLOUDY    72  59  64 SE8       29.90F
BENSON         CLOUDY    72  59  64 SE6       29.93S
ORTONVILLE     CLOUDY    72  63  73 MISG      29.90F
MADISON        CLOUDY    73  63  68 SE8       29.91F
WILLMAR        FAIR      72  63  73 SE8       29.94S
$$
MNZ033>034-036-042>043-049>051-058-059-160000-
   Central Minnesota

CITY           SKY/WX    TMP DP  RH WIND       PRES   REMARKS
ST CLOUD       PTSUNNY   74  58  57 E6        29.95S
SAUK CENTRE    DRIZZLE   70  58  66 E6        29.94F
PAYNESVILLE    PTSUNNY   73  57  58 E6        29.95S
AITKIN         CLOUDY    73  61  64 S6        29.96R
PINE RIVER     CLOUDY    70  57  64 S6        30.00R
BRAINERD       CLOUDY    74  58  57 S6        29.97R
STAPLES        LGT RAIN  70  57  64 SE3       29.96S
LONG PRAIRIE   PTSUNNY   70  59  68 E3        29.96S
LITTLE FALLS   CLOUDY    72  55  56 E3        29.96S
LITCHFIELD     CLOUDY    73  63  68 SE5       29.94S
BUFFALO        CLOUDY    74  56  51 E5        29.96S
MAPLE LAKE     PTSUNNY   75  60  59 E3        29.95S
HUTCHINSON     CLOUDY    72  62  71 E7        29.96R
$$
MNZ037-044-045-052-053-160000-
   East Central Minnesota

CITY           SKY/WX    TMP DP  RH WIND       PRES   REMARKS
PRINCETON      PTSUNNY   75  57  53 E3        29.96R
MORA           CLOUDY    72  55  56 SE3       29.98S
RUSH CITY      CLOUDY    73  59  60 SE3       29.97R
MOOSE LAKE     MOSUNNY   73  61  64 NE3       29.96S
HINCKLEY       FAIR      73  61  64 S3        29.96S
CLOQUET        SUNNY     70  57  64 E6        30.00R
MCGREGOR       MOSUNNY   73  59  60 SE6       29.98R
$$
MNZ071>073-080-081-089-090-097-098-160000-
   Southwest Minnesota

CITY           SKY/WX    TMP DP  RH WIND       PRES   REMARKS
MONTEVIDEO     CLOUDY    72  61  68 S8        29.92S
GRANITE FALLS  CLOUDY    72  63  73 SE8       29.94R
CANBY          CLOUDY    70  63  77 E12       29.92S
MARSHALL       CLOUDY    68  63  84 SE14      29.91F
REDWOOD FALLS  CLOUDY    70  61  73 SE10      29.93R
OLIVIA         CLOUDY    70  61  73 SE9       29.93R
PIPESTONE      CLOUDY    70  63  78 SE3       29.91F
WINDOM         CLOUDY    66  61  82 E10       29.93F
WORTHINGTON    CLOUDY    67  63  87 E12       29.92F
JACKSON        CLOUDY    66  61  82 E10       29.94F
TRACY          CLOUDY    67  64  89 E8        29.92F
SLAYTON        CLOUDY    67  58  74 E8        29.93F
$$
MNZ065>067-074>077-082>085-091>093-160000-
   South Central Minnesota

CITY           SKY/WX    TMP DP  RH WIND       PRES   REMARKS
MANKATO        PTSUNNY   70  63  78 SE8       29.95R
NEW ULM        CLOUDY    70  61  73 SE6       29.94S
ST JAMES       CLOUDY    66  63  88 E7        29.95F
FAIRMONT       CLOUDY    67  63  87 E6        29.94F
GLENCOE        CLOUDY    73  62  68 E8        29.94S
FARIBAULT      CLOUDY    72  61  68 E7        29.96S
OWATONNA       CLOUDY    70  61  73 SE9       29.96S
WASECA         CLOUDY    70  61  73 E8        29.97S
ALBERT LEA     CLOUDY    70  64  83 E7        29.96F
$$
MNZ078>079-086>088-094>096-160000-
   Southeast Minnesota

CITY           SKY/WX    TMP DP  RH WIND       PRES   REMARKS
ROCHESTER      CLOUDY    68  61  78 SE9       29.98S
RED WING       CLOUDY    73  57  56 SE7       29.95S
STANTON        CLOUDY    72  60  67 E6        29.95R
DODGE CENTER   CLOUDY    70  61  73 E8        29.97F
WINONA         CLOUDY    73  61  64 E5        29.96F
AUSTIN         CLOUDY    66  61  82 SE7       29.97F
PRESTON        CLOUDY    68  60  74 SE3       29.99S
$$
ABBREVIATIONS USED IN REMARKS
   TC - TEMPERATURES IN CELSIUS
  WCI - WIND CHILL INDEX
   HX - HEAT INDEX
  VSB - VISIBILITY
$$




USA.gov is the U.S. government's official web portal to all federal, state and local government web resources and services.